Orbital Elements at Epoch 2459000.5 (2020-May-31.0) TDB
Reference: JPL 23 (heliocentric ecliptic J2000)
Element | Value | Uncertainty (1-sigma) | Units |
e | .2107365686621009 | 3.9488e-08 | |
a | 3.193404562872608 | 1.7101e-08 | au |
q | 2.520437442942939 | 1.2909e-07 | au |
i | 2.031245149859498 | 3.542e-06 | deg |
node | 125.5250481701383 | 0.00013199 | deg |
peri | 224.8307279546175 | 0.00013229 | deg |
M | 252.190785081875 | 1.1501e-05 | deg |
tp | 2459624.712874470804 (2022-Feb-14.21287447) | 6.9313e-05 | TDB |
period | 2084.391719020948 5.71 | 1.6743e-05 4.584e-08 | d yr |
n | .1727122578327524 | 1.3873e-09 | deg/d |
Q | 3.866371682802277 | 2.0705e-08 | au |
|
| | Orbit Determination Parameters
Additional Information
|